N0ZMJ-3 Weather Reports


Display with metric or nautical units.
time (UTC)temp
F
wind
direction
speed
MPH
gust
MPH
rain 1hr
in
rain 24hr
in
rain mn
in
humidity
%
barometer
mb
20260904030159 77 148 0.0 0.0 0.00 0.00 0.00 89 1007.6
20260904025505 77 148 0.0 0.0 0.00 0.00 0.00 89 1007.5
20260904025428 77 148 0.0 0.0 0.00 0.00 0.00 89 1007.5
20260904024759 78 148 0.0 0.0 0.00 0.00 0.00 88 1007.3
20260904024428 78 148 0.0 1.0 0.00 0.00 0.00 88 1007.3
20260904024059 78 148 0.0 1.0 0.00 0.00 0.00 88 1007.3
20260904023427 78 148 0.0 3.0 0.00 0.00 0.00 87 1007.1
20260904023400 78 148 0.0 3.0 0.00 0.00 0.00 87 1007.1
20260904022659 78 148 0.0 3.0 0.00 0.00 0.00 87 1007.2
20260904022427 79 146 0.0 1.0 0.00 0.00 0.00 87 1007.2
20260904022000 79 146 0.0 1.0 0.00 0.00 0.00 87 1007.1
20260904021427 79 146 0.0 2.0 0.00 0.00 0.00 86 1007.0
20260904021300 79 146 0.0 2.0 0.00 0.00 0.00 86 1007.0
20260904020559 79 146 0.0 2.0 0.00 0.00 0.00 86 1006.9
20260904020427 80 146 0.0 2.0 0.00 0.00 0.00 85 1006.8
20260904015859 80 146 0.0 2.0 0.00 0.00 0.00 85 1006.8
20260904015427 80 146 0.0 2.0 0.00 0.00 0.00 85 1006.7
20260904015202 80 146 0.0 2.0 0.00 0.00 0.00 85 1006.7
20260904014505 81 146 0.0 1.0 0.00 0.00 0.00 84 1006.6
20260904014429 81 146 0.0 1.0 0.00 0.00 0.00 84 1006.6
20260904013804 81 146 0.0 1.0 0.00 0.00 0.00 85 1006.5
20260904013429 82 146 0.0 1.0 0.00 0.00 0.00 84 1006.4
20260904013100 82 146 0.0 1.0 0.00 0.00 0.00 84 1006.4
20260904012429 82 146 0.0 0.0 0.00 0.00 0.00 83 1006.3
20260904012402 82 146 0.0 0.0 0.00 0.00 0.00 83 1006.3
20260904011702 83 146 0.0 0.0 0.00 0.00 0.00 82 1006.3
20260904011428 83 146 0.0 0.0 0.00 0.00 0.00 81 1006.2
20260904011000 84 146 0.0 0.0 0.00 0.00 0.00 80 1006.2
20260904010428 84 146 0.0 1.0 0.00 0.00 0.00 79 1006.2
20260904010301 84 146 0.0 1.0 0.00 0.00 0.00 79 1006.2
20260904005559 84 146 0.0 1.0 0.00 0.00 0.00 78 1006.2
20260904005428 85 146 0.0 1.0 0.00 0.00 0.00 77 1006.1
20260904004900 85 146 0.0 1.0 0.00 0.00 0.00 76 1006.1
20260904004428 86 146 0.0 1.0 0.00 0.00 0.00 75 1006.2
20260904004159 86 146 0.0 1.0 0.00 0.00 0.00 75 1006.2
20260904003501 86 146 0.0 3.0 0.00 0.00 0.00 74 1006.1
20260904003428 86 146 0.0 3.0 0.00 0.00 0.00 74 1006.1
20260904002801 86 148 1.0 3.0 0.00 0.00 0.00 73 1006.1
20260904002428 86 151 0.0 3.0 0.00 0.00 0.00 72 1006.0
20260904002101 86 151 0.0 3.0 0.00 0.00 0.00 72 1006.0
20260904001428 87 151 0.0 2.0 0.00 0.00 0.00 71 1006.0
20260904001400 87 151 0.0 2.0 0.00 0.00 0.00 71 1006.0
20260904000701 87 151 0.0 2.0 0.00 0.00 0.00 70 1006.0
20260904000428 87 151 0.0 2.0 0.00 0.00 0.00 70 1006.0
20260904000001 88 151 0.0 3.0 0.00 0.00 0.00 69 1006.0
20260903235427 88 151 1.0 4.0 0.00 0.00 0.00 68 1006.0
20260903235259 88 151 1.0 4.0 0.00 0.00 0.00 68 1006.0
20260903234559 88 151 1.0 4.0 0.00 0.00 0.00 67 1006.0
20260903234427 88 130 0.0 3.0 0.00 0.00 0.00 67 1006.0
20260903233859 88 130 1.0 3.0 0.00 0.00 0.00 66 1006.1
20260903233427 88 129 1.0 7.0 0.00 0.00 0.00 66 1006.0
20260903233159 88 129 1.0 7.0 0.00 0.00 0.00 66 1006.0
20260903232500 89 216 1.0 9.0 0.00 0.00 0.00 64 1006.0
20260903232427 89 216 1.0 9.0 0.00 0.00 0.00 64 1006.0
20260903231758 89 178 2.0 9.0 0.00 0.00 0.00 62 1005.8
20260903231427 89 202 2.0 6.0 0.00 0.00 0.00 62 1005.8
20260903231105 89 202 2.0 6.0 0.00 0.00 0.00 62 1005.8
20260903230429 89 164 3.0 8.0 0.00 0.00 0.00 59 1005.9
20260903230402 89 164 3.0 8.0 0.00 0.00 0.00 59 1005.9
20260903225702 89 205 3.0 11.0 0.00 0.00 0.00 58 1005.8
20260903225429 89 207 2.0 11.0 0.00 0.00 0.00 58 1005.8
20260903225002 90 231 2.0 11.0 0.00 0.00 0.00 58 1005.7
20260903224429 90 238 4.0 11.0 0.00 0.00 0.00 58 1005.8
20260903224304 90 238 4.0 11.0 0.00 0.00 0.00 58 1005.8
20260903223603 90 222 4.0 10.0 0.00 0.00 0.00 57 1005.7
20260903223428 90 228 3.0 11.0 0.00 0.00 0.00 57 1005.7
20260903222901 90 231 3.0 11.0 0.00 0.00 0.00 57 1005.6
20260903222428 90 205 3.0 10.0 0.00 0.00 0.00 57 1005.6
20260903222159 90 205 3.0 10.0 0.00 0.00 0.00 57 1005.6
20260903221501 91 226 4.0 14.0 0.00 0.00 0.00 56 1005.5
20260903221428 91 226 4.0 14.0 0.00 0.00 0.00 56 1005.5
20260903220804 91 224 3.0 11.0 0.00 0.00 0.00 56 1005.6
20260903220428 91 244 3.0 11.0 0.00 0.00 0.00 57 1005.6
20260903220059 91 244 3.0 11.0 0.00 0.00 0.00 57 1005.6
20260903215428 92 239 2.0 12.0 0.00 0.00 0.00 58 1005.4
20260903215359 92 239 2.0 12.0 0.00 0.00 0.00 58 1005.4
20260903214701 92 223 5.0 12.0 0.00 0.00 0.00 57 1005.4
20260903214428 92 228 6.0 10.0 0.00 0.00 0.00 56 1005.5
20260903213959 92 242 3.0 9.0 0.00 0.00 0.00 61 1005.3
20260903213428 92 203 2.0 13.0 0.00 0.00 0.00 62 1005.4
20260903213302 92 203 2.0 13.0 0.00 0.00 0.00 62 1005.4
20260903212602 92 216 2.0 13.0 0.00 0.00 0.00 59 1005.3
20260903212427 92 231 6.0 12.0 0.00 0.00 0.00 55 1005.2
20260903211859 92 233 4.0 12.0 0.00 0.00 0.00 59 1005.2
20260903211427 92 225 4.0 11.0 0.00 0.00 0.00 57 1005.3
20260903211200 92 225 4.0 11.0 0.00 0.00 0.00 57 1005.3
20260903210459 92 189 1.0 12.0 0.00 0.00 0.00 61 1005.2
20260903210427 92 189 1.0 12.0 0.00 0.00 0.00 61 1005.2
20260903205800 91 180 2.0 9.0 0.00 0.00 0.00 62 1005.2
20260903205427 91 219 3.0 9.0 0.00 0.00 0.00 63 1005.0
20260903205059 91 219 3.0 9.0 0.00 0.00 0.00 63 1005.0
20260903204429 91 168 2.0 7.0 0.00 0.00 0.00 65 1005.0
20260903204402 91 168 2.0 7.0 0.00 0.00 0.00 65 1005.0
20260903203700 91 202 2.0 7.0 0.00 0.00 0.00 66 1004.9
20260903203429 91 206 2.0 7.0 0.00 0.00 0.00 67 1004.9
20260903203001 91 156 2.0 7.0 0.00 0.00 0.00 68 1005.0
20260903202429 90 224 1.0 6.0 0.00 0.00 0.00 68 1005.1
20260903202301 90 224 1.0 6.0 0.00 0.00 0.00 68 1005.1
20260903201600 90 203 3.0 6.0 0.00 0.00 0.00 69 1005.2
20260903201428 90 168 2.0 7.0 0.00 0.00 0.00 69 1005.1
20260903200905 90 185 3.0 7.0 0.00 0.00 0.00 69 1005.3
20260903200428 89 192 3.0 9.0 0.00 0.00 0.00 70 1005.3
20260903200201 89 192 3.0 9.0 0.00 0.00 0.00 70 1005.3
20260903195500 89 175 6.0 10.0 0.00 0.00 0.00 69 1005.4
20260903195428 89 175 6.0 10.0 0.00 0.00 0.00 69 1005.4
20260903194758 89 162 3.0 10.0 0.00 0.00 0.00 69 1005.5
20260903194427 89 160 3.0 9.0 0.00 0.00 0.00 70 1005.5
20260903194103 89 160 3.0 9.0 0.00 0.00 0.00 70 1005.5
20260903193429 90 154 2.0 9.0 0.00 0.00 0.00 70 1005.6
20260903193400 90 154 2.0 9.0 0.00 0.00 0.00 70 1005.6
20260903192701 90 111 3.0 9.0 0.00 0.00 0.00 69 1005.6
20260903192429 90 239 1.0 10.0 0.00 0.00 0.00 70 1005.6
20260903192000 90 181 2.0 10.0 0.00 0.00 0.00 70 1005.7
20260903191429 89 165 3.0 9.0 0.00 0.00 0.00 70 1005.8
20260903191300 89 165 3.0 9.0 0.00 0.00 0.00 70 1005.8
20260903190604 89 195 3.0 12.0 0.00 0.00 0.00 70 1005.8
20260903190428 89 172 4.0 12.0 0.00 0.00 0.00 70 1005.8
20260903185900 89 158 4.0 10.0 0.00 0.00 0.00 71 1005.8
20260903185428 89 143 3.0 8.0 0.00 0.00 0.00 72 1006.0
20260903185200 89 143 3.0 8.0 0.00 0.00 0.00 72 1006.0
20260903184500 88 140 2.0 7.0 0.00 0.00 0.00 73 1005.9
20260903184428 88 140 2.0 7.0 0.00 0.00 0.00 73 1005.9
20260903183800 88 162 1.0 9.0 0.00 0.00 0.00 73 1005.7
20260903183428 88 163 3.0 9.0 0.00 0.00 0.00 73 1005.7
20260903183100 88 163 3.0 9.0 0.00 0.00 0.00 73 1005.7
20260903182428 87 177 2.0 8.0 0.00 0.00 0.00 74 1005.6
20260903182359 87 177 2.0 8.0 0.00 0.00 0.00 74 1005.6
20260903181700 87 158 2.0 7.0 0.00 0.00 0.00 76 1005.7
20260903181428 86 163 2.0 7.0 0.00 0.00 0.00 76 1005.5
20260903180959 86 114 3.0 8.0 0.00 0.00 0.00 76 1005.5
20260903180428 86 94 6.0 8.0 0.00 0.00 0.00 75 1005.5
20260903180307 86 94 6.0 8.0 0.00 0.00 0.00 75 1005.5
20260903175559 86 102 3.0 8.0 0.00 0.00 0.00 77 1005.5
20260903175427 86 80 3.0 8.0 0.00 0.00 0.00 77 1005.7
20260903174905 86 94 2.0 8.0 0.00 0.00 0.00 78 1005.8
20260903174427 85 167 3.0 8.0 0.00 0.00 0.00 78 1005.8
20260903174159 85 167 3.0 8.0 0.00 0.00 0.00 78 1005.8
20260903173500 84 102 5.0 10.0 0.00 0.00 0.00 80 1005.7
20260903173427 84 102 5.0 10.0 0.00 0.00 0.00 80 1005.7
20260903172801 84 100 3.0 8.0 0.00 0.00 0.00 81 1005.8
20260903172427 84 97 3.0 8.0 0.00 0.00 0.00 81 1005.7
20260903172100 84 97 3.0 8.0 0.00 0.00 0.00 81 1005.7
20260903171429 83 94 5.0 8.0 0.00 0.00 0.00 81 1005.5
20260903171403 83 94 5.0 8.0 0.00 0.00 0.00 81 1005.5
20260903170700 82 86 3.0 8.0 0.00 0.00 0.00 82 1005.6
20260903170429 82 97 1.0 7.0 0.00 0.00 0.00 83 1005.9
20260903170001 81 123 3.0 5.0 0.00 0.00 0.00 85 1006.3
20260903165428 81 148 1.0 7.0 0.00 0.00 0.00 86 1006.7
20260903165300 81 148 1.0 7.0 0.00 0.00 0.00 86 1006.7
20260903164602 80 84 0.0 7.0 0.00 0.00 0.00 86 1006.6
20260903164428 80 98 4.0 6.0 0.00 0.00 0.00 85 1006.5
20260903163902 80 217 2.0 3.0 0.00 0.00 0.00 86 1007.0
20260903163428 80 100 0.0 4.0 0.00 0.00 0.00 84 1006.6
20260903163159 80 100 0.0 4.0 0.00 0.00 0.00 84 1006.6
20260903162459 80 173 2.0 4.0 0.00 0.00 0.00 84 1007.0
20260903162428 80 173 2.0 4.0 0.00 0.00 0.00 84 1007.0
20260903161801 81 137 0.0 2.0 0.00 0.00 0.00 84 1006.8
20260903161428 81 136 1.0 5.0 0.00 0.00 0.00 84 1006.6
20260903161100 81 136 1.0 5.0 0.00 0.00 0.00 84 1006.6
20260903160428 81 172 1.0 5.0 0.00 0.00 0.00 83 1006.5
20260903160403 81 172 1.0 5.0 0.00 0.00 0.00 83 1006.5
20260903155659 81 161 1.0 5.0 0.00 0.00 0.00 84 1006.6
20260903155428 81 167 1.0 3.0 0.00 0.00 0.00 84 1006.5
20260903155000 81 117 2.0 3.0 0.00 0.00 0.00 84 1006.3
20260903154428 81 119 1.0 5.0 0.00 0.00 0.00 84 1006.5
20260903154259 81 119 1.0 5.0 0.00 0.00 0.00 84 1006.5
20260903153600 80 238 2.0 5.0 0.00 0.00 0.00 84 1006.5
20260903153427 80 211 0.0 4.0 0.00 0.00 0.00 85 1006.5
20260903152900 80 248 1.0 4.0 0.00 0.00 0.00 84 1006.5
20260903152427 80 220 1.0 4.0 0.00 0.00 0.00 84 1006.3
20260903152158 80 220 1.0 4.0 0.00 0.00 0.00 84 1006.3
20260903151500 80 166 2.0 5.0 0.00 0.00 0.00 84 1006.3
20260903151427 80 166 2.0 5.0 0.00 0.00 0.00 84 1006.3
20260903150803 80 168 2.0 5.0 0.00 0.00 0.00 85 1006.3
20260903150429 80 175 1.0 5.0 0.00 0.00 0.00 86 1006.2
20260903150101 80 175 1.0 5.0 0.00 0.00 0.00 86 1006.2
20260903145429 79 155 2.0 5.0 0.00 0.00 0.00 86 1006.2
20260903145406 79 155 2.0 5.0 0.00 0.00 0.00 86 1006.2
20260903144706 79 205 1.0 5.0 0.00 0.00 0.00 87 1006.3
20260903144429 79 183 1.0 6.0 0.00 0.00 0.00 88 1006.2
20260903144004 78 183 2.0 6.0 0.00 0.00 0.00 89 1006.4
20260903143428 78 170 2.0 6.0 0.00 0.00 0.00 91 1006.6
20260903143303 78 170 2.0 6.0 0.00 0.00 0.00 91 1006.6
20260903142602 77 193 2.0 6.0 0.00 0.00 0.00 92 1006.6
20260903142428 77 173 2.0 5.0 0.00 0.00 0.00 93 1006.7
20260903141900 76 144 1.0 5.0 0.00 0.00 0.00 94 1006.8
20260903141428 76 203 1.0 3.0 0.00 0.00 0.00 95 1006.8
20260903141204 76 203 1.0 3.0 0.00 0.00 0.00 95 1006.8
20260903140500 75 214 1.0 5.0 0.00 0.00 0.00 97 1006.8
20260903140428 75 214 1.0 5.0 0.00 0.00 0.00 97 1006.8
20260903135802 74 197 1.0 5.0 0.00 0.00 0.00 98 1006.6
20260903135428 74 220 1.0 4.0 0.00 0.00 0.00 99 1006.5
20260903135100 74 220 1.0 4.0 0.00 0.00 0.00 99 1006.5
20260903134428 73 115 0.0 4.0 0.00 0.00 0.00 99 1006.5
20260903134401 73 115 0.0 4.0 0.00 0.00 0.00 99 1006.5
20260903133659 72 144 1.0 4.0 0.00 0.00 0.00 99 1006.4
20260903133427 72 148 1.0 5.0 0.00 0.00 0.00 99 1006.5
20260903133000 72 174 2.0 5.0 0.00 0.00 0.00 100 1006.5
20260903132427 72 146 1.0 2.0 0.00 0.00 0.00 100 1006.2
20260903132306 72 146 1.0 2.0 0.00 0.00 0.00 100 1006.2
20260903131600 72 146 1.0 3.0 0.00 0.00 0.00 100 1006.2
20260903131427 71 146 1.0 3.0 0.00 0.00 0.00 100 1006.1
20260903130901 71 155 1.0 3.0 0.00 0.00 0.00 100 1006.2
20260903130427 71 110 1.0 4.0 0.00 0.00 0.00 100 1006.2
20260903130201 71 110 1.0 4.0 0.00 0.00 0.00 100 1006.2
20260903125501 71 127 0.0 3.0 0.00 0.00 0.00 100 1006.2
20260903125429 71 127 0.0 3.0 0.00 0.00 0.00 100 1006.2
20260903124802 70 109 1.0 3.0 0.00 0.00 0.00 100 1006.0
20260903124429 70 97 0.0 4.0 0.00 0.00 0.00 100 1006.0
20260903124100 70 97 0.0 4.0 0.00 0.00 0.00 100 1006.0
20260903123428 70 97 2.0 4.0 0.00 0.00 0.00 100 1006.0
20260903123402 70 97 2.0 4.0 0.00 0.00 0.00 100 1006.0
20260903122701 70 97 1.0 4.0 0.00 0.00 0.00 100 1006.0
20260903122428 70 98 0.0 4.0 0.00 0.00 0.00 100 1006.0
20260903122004 70 97 2.0 4.0 0.00 0.00 0.00 100 1006.0
20260903121428 70 97 1.0 3.0 0.00 0.00 0.00 100 1006.1
20260903121301 70 97 1.0 3.0 0.00 0.00 0.00 100 1006.1
20260903120601 70 97 2.0 3.0 0.00 0.00 0.00 100 1005.9
20260903120428 70 97 1.0 3.0 0.00 0.00 0.00 100 1006.2
20260903115859 70 97 1.0 3.0 0.00 0.00 0.00 100 1006.1
20260903115428 70 98 1.0 2.0 0.00 0.00 0.00 100 1006.2
20260903115200 70 98 1.0 2.0 0.00 0.00 0.00 100 1006.2
20260903114500 71 98 0.0 2.0 0.00 0.00 0.00 100 1006.4
20260903114428 71 98 0.0 2.0 0.00 0.00 0.00 100 1006.4
20260903113800 71 98 0.0 3.0 0.00 0.00 0.00 100 1006.4
20260903113428 71 98 0.0 4.0 0.00 0.00 0.00 100 1006.5
20260903113102 71 98 0.0 4.0 0.00 0.00 0.00 100 1006.5
20260903112427 70 98 2.0 4.0 0.00 0.00 0.00 100 1006.0
20260903112359 70 98 2.0 4.0 0.00 0.00 0.00 100 1006.0
20260903111701 70 98 1.0 2.0 0.00 0.00 0.00 100 1006.2
20260903111427 71 98 0.0 1.0 0.00 0.00 0.00 100 1006.3
20260903111002 71 98 0.0 0.0 0.00 0.00 0.00 100 1006.5
20260903110427 71 98 0.0 0.0 0.00 0.00 0.00 100 1006.4
20260903110301 71 98 0.0 0.0 0.00 0.00 0.00 100 1006.4
20260903105607 71 98 0.0 0.0 0.00 0.00 0.00 100 1006.4
20260903105427 71 98 0.0 2.0 0.00 0.00 0.00 100 1006.3
20260903104902 71 98 0.0 4.0 0.00 0.00 0.00 100 1006.2
20260903104429 71 98 1.0 4.0 0.00 0.00 0.00 100 1006.2
20260903104200 71 98 1.0 4.0 0.00 0.00 0.00 100 1006.2
20260903103504 71 98 1.0 4.0 0.00 0.00 0.00 100 1006.3
20260903103429 71 98 1.0 4.0 0.00 0.00 0.00 100 1006.3
20260903102800 71 98 2.0 4.0 0.00 0.00 0.00 100 1006.3
20260903102429 71 98 0.0 3.0 0.00 0.00 0.00 100 1006.3
20260903102100 71 98 0.0 3.0 0.00 0.00 0.00 100 1006.3
20260903101429 71 85 1.0 3.0 0.00 0.00 0.00 100 1006.3
20260903101401 71 85 1.0 3.0 0.00 0.00 0.00 100 1006.3
20260903100700 71 85 1.0 4.0 0.00 0.00 0.00 100 1006.4
20260903100428 71 85 1.0 4.0 0.00 0.00 0.00 100 1006.4
20260903100006 71 85 1.0 2.0 0.00 0.00 0.00 100 1006.5
20260903095428 71 85 0.0 0.0 0.00 0.00 0.00 100 1006.5
20260903095300 71 85 0.0 0.0 0.00 0.00 0.00 100 1006.5
20260903094600 71 85 0.0 0.0 0.00 0.00 0.00 100 1006.6
20260903094428 71 85 0.0 0.0 0.00 0.00 0.00 100 1006.5
20260903093859 71 85 0.0 1.0 0.00 0.00 0.00 100 1006.6
20260903093428 71 85 0.0 1.0 0.00 0.00 0.00 100 1006.5
20260903093200 71 85 0.0 1.0 0.00 0.00 0.00 100 1006.5
20260903092507 71 85 0.0 1.0 0.00 0.00 0.00 100 1006.6
20260903092428 71 85 0.0 1.0 0.00 0.00 0.00 100 1006.6
20260903091800 71 85 0.0 1.0 0.00 0.00 0.00 100 1006.6
20260903091428 71 85 0.0 1.0 0.00 0.00 0.00 100 1006.6
20260903091101 71 85 0.0 1.0 0.00 0.00 0.00 100 1006.6
20260903090428 71 85 0.0 0.0 0.00 0.00 0.00 100 1006.7
20260903090400 71 85 0.0 0.0 0.00 0.00 0.00 100 1006.7
20260903085701 71 85 0.0 1.0 0.00 0.00 0.00 100 1006.8
20260903085428 71 85 0.0 1.0 0.00 0.00 0.00 100 1006.8
20260903085001 71 85 0.0 0.0 0.00 0.00 0.00 100 1006.8
20260903084428 71 85 0.0 0.0 0.00 0.00 0.00 100 1006.8
20260903084303 71 85 0.0 0.0 0.00 0.00 0.00 100 1006.8
20260903083600 71 85 0.0 1.0 0.00 0.00 0.00 100 1006.8
20260903083428 71 85 0.0 1.0 0.00 0.00 0.00 100 1006.8
20260903082903 71 85 0.0 0.0 0.00 0.00 0.00 100 1006.8
20260903082428 72 85 0.0 2.0 0.00 0.00 0.00 100 1006.8
20260903082200 72 85 0.0 2.0 0.00 0.00 0.00 100 1006.8
20260903081503 72 85 0.0 3.0 0.00 0.00 0.00 100 1006.8
20260903081428 72 85 0.0 3.0 0.00 0.00 0.00 100 1006.8
20260903080801 72 85 1.0 3.0 0.00 0.00 0.00 100 1007.0
20260903080428 72 85 1.0 4.0 0.00 0.00 0.00 100 1006.8
20260903075428 71 85 3.0 6.0 0.00 0.00 0.00 100 1006.9
20260903075359 71 85 3.0 6.0 0.00 0.00 0.00 100 1006.9
20260903074703 71 86 3.0 5.0 0.00 0.00 0.00 100 1006.8
20260903074429 71 93 4.0 5.0 0.00 0.00 0.00 100 1006.9
20260903074001 71 91 3.0 5.0 0.00 0.00 0.00 100 1007.1
20260903073428 71 90 3.0 5.0 0.00 0.00 0.00 100 1007.1
20260903073300 71 90 3.0 5.0 0.00 0.00 0.00 100 1007.1
20260903072603 71 90 2.0 3.0 0.00 0.00 0.00 100 1007.3
20260903072428 71 90 1.0 2.0 0.00 0.00 0.00 100 1007.4
20260903071859 71 90 0.0 1.0 0.00 0.00 0.00 100 1007.6
20260903071428 71 90 0.0 3.0 0.00 0.00 0.00 100 1007.6
20260903071203 71 90 0.0 3.0 0.00 0.00 0.00 100 1007.6
20260903070502 71 90 0.0 2.0 0.00 0.00 0.00 100 1007.7
20260903070428 71 90 0.0 2.0 0.00 0.00 0.00 100 1007.7
20260903065759 71 90 0.0 1.0 0.00 0.00 0.00 100 1007.8
20260903065428 71 90 0.0 1.0 0.00 0.00 0.00 100 1007.9
20260903065103 71 90 0.0 1.0 0.00 0.00 0.00 100 1007.9
20260903064428 72 90 0.0 1.0 0.00 0.00 0.00 100 1007.8
20260903064359 72 90 0.0 1.0 0.00 0.00 0.00 100 1007.8
20260903063703 72 90 0.0 2.0 0.00 0.00 0.00 100 1007.8
20260903063428 72 90 0.0 2.0 0.00 0.00 0.00 100 1007.8
20260903063000 72 90 1.0 3.0 0.00 0.00 0.00 100 1007.8
20260903062428 72 90 1.0 5.0 0.00 0.00 0.00 100 1007.8
20260903062300 72 90 1.0 5.0 0.00 0.00 0.00 100 1007.8
20260903061601 72 90 2.0 5.0 0.00 0.00 0.00 100 1007.7
20260903061428 72 90 3.0 4.0 0.00 0.00 0.00 100 1007.8
20260903060900 72 90 2.0 4.0 0.00 0.00 0.00 100 1007.8
20260903060428 72 90 2.0 4.0 0.00 0.00 0.00 100 1007.8
20260903060201 72 90 2.0 4.0 0.00 0.00 0.00 100 1007.8
20260903055428 72 90 1.0 4.0 0.00 0.00 0.00 100 1007.9
20260903054800 72 90 1.0 4.0 0.00 0.00 0.00 100 1007.9
20260903054428 73 90 0.0 1.0 0.00 0.00 0.00 100 1008.0
20260903054101 73 90 0.0 1.0 0.00 0.00 0.00 100 1008.0
20260903053428 73 90 1.0 3.0 0.00 0.00 0.00 100 1008.2
20260903053403 73 90 1.0 3.0 0.00 0.00 0.00 100 1008.2
20260903052704 73 90 1.0 3.0 0.00 0.00 0.00 100 1008.2
20260903052429 73 90 1.0 3.0 0.00 0.00 0.00 100 1008.2
20260903052001 73 90 2.0 4.0 0.00 0.00 0.00 100 1008.2
20260903051428 73 90 2.0 4.0 0.00 0.00 0.00 100 1008.2
20260903051259 73 90 2.0 4.0 0.00 0.00 0.00 100 1008.2
20260903050600 73 90 1.0 2.0 0.00 0.00 0.00 100 1008.3
20260903050428 73 90 1.0 2.0 0.00 0.00 0.00 100 1008.4
20260903045904 73 90 0.0 1.0 0.00 0.00 0.00 100 1008.4
20260903045428 73 90 0.0 2.0 0.00 0.00 0.00 100 1008.4
20260903045159 73 90 0.0 2.0 0.00 0.00 0.00 100 1008.4
20260903044428 73 90 1.0 2.0 0.00 0.00 0.00 100 1008.5
20260903043806 73 90 0.0 1.0 0.00 0.00 0.00 100 1008.5
20260903043428 73 90 0.0 1.0 0.00 0.00 0.00 99 1008.6
20260903043059 73 90 0.0 1.0 0.00 0.00 0.00 99 1008.6
20260903042428 74 90 0.0 0.0 0.00 0.00 0.00 99 1008.5
20260903042359 74 90 0.0 0.0 0.00 0.00 0.00 99 1008.5
20260903041700 74 90 0.0 1.0 0.00 0.00 0.00 98 1008.6
20260903041428 74 90 0.0 1.0 0.00 0.00 0.00 98 1008.7
20260903040959 74 90 0.0 1.0 0.00 0.00 0.00 97 1008.6
20260903040428 74 90 0.0 0.0 0.00 0.00 0.00 97 1008.7
20260903040259 74 90 0.0 0.0 0.00 0.00 0.00 97 1008.7
20260903035602 75 90 0.0 3.0 0.00 0.00 0.00 96 1008.7
20260903035427 75 90 0.0 3.0 0.00 0.00 0.00 96 1008.5
20260903034859 75 90 1.0 3.0 0.00 0.00 0.00 96 1008.4
20260903034427 75 90 0.0 1.0 0.00 0.00 0.00 95 1008.5
20260903034203 75 90 0.0 1.0 0.00 0.00 0.00 95 1008.5
20260903033459 76 90 1.0 3.0 0.00 0.00 0.00 94 1008.5
20260903033427 76 90 1.0 3.0 0.00 0.00 0.00 94 1008.5
20260903032759 76 90 2.0 3.0 0.00 0.00 0.00 94 1008.5
20260903032427 76 90 0.0 4.0 0.00 0.00 0.00 94 1008.6
20260903032059 76 90 0.0 4.0 0.00 0.00 0.00 94 1008.6
20260903031429 77 90 2.0 4.0 0.00 0.00 0.00 94 1008.4
20260903031404 77 90 2.0 4.0 0.00 0.00 0.00 94 1008.4
20260903030704 77 90 0.0 2.0 0.00 0.00 0.00 92 1008.6
20260903030428 77 90 1.0 2.0 0.00 0.00 0.00 92 1008.7